Kimball, NE

6:22 AM MST on December 12, 2017 (GMT -0700)
Kimball Municipal-Arraj

Weather History for KIBM - May, 2014

Change the Weather History Date:

Monday, May 5, 2014

  Actual Average (KSNY) Record (KSNY)
Temperature  
Mean Temperature 56 °F -  
Max Temperature 75 °F 67 °F 92 °F (2004)
Min Temperature 37 °F 38 °F 22 °F (2013)
Degree Days  
Heating Degree Days 9    
Growing Degree Days 6 (Base 50)    
Moisture  
Dew Point 39 °F    
Average Humidity 54    
Maximum Humidity 88    
Minimum Humidity 12    
Precipitation  
Precipitation 0.00 in - - ()
Sea Level Pressure  
Sea Level Pressure 29.83 in    
Wind  
Wind Speed 6 mph (South)    
Max Wind Speed 15 mph    
Max Gust Speed 21 mph    
Visibility 10 miles    
Events      
Averages and records for this station are not official NWS values.
T = Trace of Precipitation, MM = Missing Value Source: NWS Daily Summary

Daily Weather History Graph

Daily Weather History Graph

Search for Another Location

Airport or City:

Trip Planner

Search our weather history database for the weather conditions in past years. The results will help you decide how hot, cold, wet, or windy it might be!

Date:

Astronomy

May. 05, 2014 Rise Set
Actual Time 6:47 AM CDT 8:56 PM CDT
Civil Twilight 6:16 AM CDT 9:26 PM CDT
Nautical Twilight 5:39 AM CDT 10:04 PM CDT
Astronomical Twilight 4:59 AM CDT 10:45 PM CDT
Moon 12:09 PM CDT (5/5) 1:41 AM CDT (5/5)
Length of Visible Light 15h 09m
Length of Day
14h 08m
Waxing Crescent, 37% of the Moon is Illuminated
May 5
Waxing Crescent
May 6
First Quarter
May 14
Full
May 21
Last Quarter
May 28
New

Hourly Weather History & Observations

Time (CDT) Temp. Windchill Dew Point Humidity Pressure Visibility Wind Dir Wind Speed Gust Speed Precip Events Conditions
12:15 AM 57.0 °F - 36.7 °F 47% 29.85 in 10.0 mi WNW 3.5 mph - N/A   Clear
12:35 AM 51.6 °F - 37.2 °F 58% 29.85 in 10.0 mi Calm Calm - N/A   Clear
12:55 AM 51.6 °F - 37.8 °F 59% 29.85 in 10.0 mi Calm Calm - N/A   Clear
1:15 AM 46.8 °F - 38.1 °F 72% 29.86 in 10.0 mi WNW 5.8 mph - N/A   Clear
1:35 AM 50.5 °F - 39.0 °F 65% 29.86 in 10.0 mi NW 3.5 mph - N/A   Clear
1:55 AM 51.3 °F - 40.5 °F 67% 29.85 in 10.0 mi NNW 8.1 mph - N/A   Clear
2:15 AM 51.4 °F - 41.0 °F 68% 29.85 in 10.0 mi NNW 10.4 mph - N/A   Clear
2:35 AM 49.5 °F - 40.6 °F 72% 29.85 in 10.0 mi NNW 4.6 mph - N/A   Clear
2:55 AM 45.7 °F 44.4 °F 38.8 °F 77% 29.86 in 10.0 mi NE 3.5 mph - N/A   Clear
3:15 AM 42.4 °F 39.6 °F 37.9 °F 84% 29.86 in 10.0 mi ENE 4.6 mph - N/A   Clear
3:55 AM 42.3 °F - 36.5 °F 80% 29.85 in 10.0 mi Calm Calm - N/A   Clear
4:15 AM 40.8 °F - 36.9 °F 86% 29.86 in 10.0 mi Calm Calm - N/A   Clear
4:35 AM 40.3 °F - 36.5 °F 86% 29.86 in 10.0 mi Calm Calm - N/A   Clear
4:55 AM 39.7 °F 37.6 °F 35.2 °F 84% 29.86 in 10.0 mi SSW 3.5 mph - N/A   Clear
5:15 AM 38.8 °F 33.8 °F 35.4 °F 88% 29.86 in 10.0 mi WSW 6.9 mph - N/A   Clear
5:35 AM 37.9 °F 33.5 °F 34.5 °F 87% 29.87 in 10.0 mi WSW 5.8 mph - N/A   Clear
5:55 AM 39.2 °F 32.5 °F 36.0 °F 88% 29.87 in 10.0 mi WSW 10.4 mph - N/A   Clear
6:15 AM 40.3 °F 33.9 °F 36.7 °F 87% 29.87 in 10.0 mi SW 10.4 mph - N/A   Clear
6:35 AM 39.7 °F 34.3 °F 36.3 °F 88% 29.87 in 10.0 mi SW 8.1 mph - N/A   Clear
6:55 AM 38.7 °F 32.9 °F 35.4 °F 88% 29.87 in 10.0 mi WSW 8.1 mph - N/A   Clear
7:15 AM 40.3 °F 35.5 °F 36.9 °F 88% 29.87 in 10.0 mi WSW 6.9 mph - N/A   Clear
7:35 AM 41.5 °F 37.1 °F 38.3 °F 88% 29.88 in 10.0 mi WNW 6.9 mph - N/A   Clear
7:55 AM 44.6 °F 41.4 °F 40.3 °F 85% 29.89 in 10.0 mi West 5.8 mph - N/A   Clear
8:15 AM 46.8 °F - 41.2 °F 81% 29.89 in 10.0 mi WSW 6.9 mph - N/A   Clear
8:35 AM 48.2 °F - 41.4 °F 77% 29.87 in 10.0 mi WSW 4.6 mph - N/A   Clear
8:55 AM 52.2 °F - 43.2 °F 71% 29.88 in 10.0 mi WSW 6.9 mph - N/A   Clear
9:15 AM 55.0 °F - 44.1 °F 67% 29.89 in 10.0 mi WSW 9.2 mph - N/A   Clear
9:35 AM 57.9 °F - 44.2 °F 60% 29.89 in 10.0 mi WSW 9.2 mph - N/A   Clear
9:55 AM 60.4 °F - 42.6 °F 52% 29.88 in 10.0 mi West 6.9 mph - N/A   Clear
10:15 AM 62.6 °F - 43.0 °F 49% 29.89 in 10.0 mi SSW 4.6 mph - N/A   Clear
10:35 AM 63.1 °F - 43.9 °F 49% 29.89 in 10.0 mi Calm Calm - N/A   Clear
10:55 AM 66.0 °F - 44.4 °F 46% 29.88 in 10.0 mi SW 5.8 mph - N/A   Clear
11:15 AM 67.1 °F - 44.8 °F 45% 29.88 in 10.0 mi South 3.5 mph - N/A   Clear
11:35 AM 68.5 °F - 43.2 °F 40% 29.88 in 10.0 mi South 3.5 mph - N/A   Clear
11:55 AM 69.3 °F - 44.1 °F 40% 29.88 in 10.0 mi Calm Calm - N/A   Clear
12:15 PM 69.3 °F - 45.1 °F 42% 29.87 in 10.0 mi East 3.5 mph - N/A   Clear
12:35 PM 69.3 °F - 46.2 °F 44% 29.87 in 10.0 mi ESE 10.4 mph - N/A   Clear
1:15 PM 66.6 °F - 45.9 °F 47% 29.86 in 10.0 mi SSE 12.7 mph - N/A   Clear
1:35 PM 68.0 °F - 45.7 °F 45% 29.86 in 10.0 mi SSE 13.8 mph - N/A   Clear
1:55 PM 68.9 °F - 45.3 °F 43% 29.85 in 10.0 mi SSE 12.7 mph - N/A   Clear
2:15 PM 70.7 °F - 45.0 °F 40% 29.84 in 10.0 mi SSE 12.7 mph - N/A   Clear
2:35 PM 71.2 °F - 43.7 °F 37% 29.84 in 10.0 mi SSE 15.0 mph - N/A   Clear
2:55 PM 71.8 °F - 41.5 °F 34% 29.83 in 10.0 mi SSE 12.7 mph 18.4 mph N/A   Clear
3:15 PM 72.1 °F - 40.8 °F 32% 29.83 in 10.0 mi South 11.5 mph - N/A   Clear
3:35 PM 73.2 °F - 39.2 °F 29% 29.82 in 10.0 mi South 12.7 mph - N/A   Clear
3:55 PM 73.2 °F - 38.7 °F 29% 29.81 in 10.0 mi South 11.5 mph - N/A   Clear
4:15 PM 73.6 °F - 38.8 °F 28% 29.79 in 10.0 mi SSE 12.7 mph - N/A   Clear
4:35 PM 73.8 °F - 36.3 °F 26% 29.78 in 10.0 mi SSE 13.8 mph - N/A   Clear
4:55 PM 74.3 °F - 37.4 °F 26% 29.78 in 10.0 mi SSE 12.7 mph 18.4 mph N/A   Clear
5:15 PM 74.7 °F - 35.1 °F 24% 29.77 in 10.0 mi South 11.5 mph 19.6 mph N/A   Clear
5:35 PM 75.7 °F - 28.0 °F 17% 29.76 in 10.0 mi South 12.7 mph 20.7 mph N/A   Clear
5:55 PM 75.9 °F - 19.0 °F 12% 29.75 in 10.0 mi South 13.8 mph - N/A   Clear
6:15 PM 74.5 °F - 22.5 °F 14% 29.75 in 10.0 mi South 11.5 mph - N/A   Clear
6:35 PM 73.0 °F - 31.1 °F 21% 29.75 in 10.0 mi SSE 9.2 mph - N/A   Clear
6:55 PM 72.5 °F - 30.9 °F 22% 29.74 in 10.0 mi SSE 9.2 mph - N/A   Clear
7:15 PM 71.1 °F - 32.2 °F 24% 29.74 in 10.0 mi SE 8.1 mph - N/A   Clear
7:35 PM 68.2 °F - 33.6 °F 28% 29.73 in 10.0 mi SE 9.2 mph - N/A   Clear
7:55 PM 64.2 °F - 36.3 °F 36% 29.73 in 10.0 mi SE 8.1 mph - N/A   Clear
8:15 PM 61.0 °F - 35.6 °F 39% 29.72 in 10.0 mi SE 6.9 mph - N/A   Clear
8:35 PM 59.5 °F - 33.1 °F 37% 29.72 in 10.0 mi SE 8.1 mph - N/A   Clear
8:55 PM 59.0 °F - 36.3 °F 43% 29.73 in 10.0 mi SE 10.4 mph - N/A   Clear
9:15 PM 61.7 °F - 41.2 °F 47% 29.73 in 10.0 mi SE 11.5 mph - N/A   Clear
9:35 PM 61.2 °F - 41.0 °F 47% 29.74 in 10.0 mi SE 12.7 mph - N/A   Clear
9:55 PM 60.8 °F - 41.4 °F 49% 29.74 in 10.0 mi SE 13.8 mph - N/A   Clear
10:15 PM 59.0 °F - 41.9 °F 53% 29.74 in 10.0 mi SE 11.5 mph - N/A   Clear
10:35 PM 57.0 °F - 41.5 °F 56% 29.74 in 10.0 mi SE 10.4 mph - N/A   Clear
10:55 PM 56.3 °F - 41.4 °F 57% 29.74 in 10.0 mi SE 13.8 mph - N/A   Clear
11:15 PM 56.8 °F - 41.2 °F 56% 29.74 in 10.0 mi SSE 15.0 mph - N/A   Clear